Location: Caltech
(34.1382°N, 118.1253°W)
Time: 21:38:59
(UTC-08:00)

Gbstr 26 Del rocket - Visible Passes

Search period start: 31 January 2015 00:00
Search period end: 10 February 2015 00:00
Orbit: 493 x 1274 km, 51.8° (Epoch: 30 January)

Date Brightness Start Highest point End Pass type
(mag) Time Alt. Az. Time Alt. Az. Time Alt. Az.
31 Jan 5.5 05:12:12 11° N 05:12:17 11° N 05:13:40 10° N visible
01 Feb 5.6 05:09:26 10° N 05:09:34 10° N 05:09:40 10° N visible
07 Feb 5.7 04:52:23 10° N 04:53:11 10° NNE 04:54:08 10° NNE visible
08 Feb 5.7 04:48:48 10° N 04:50:24 12° NNE 04:52:13 10° NE visible
09 Feb 5.6 04:45:46 11° N 04:47:35 13° NNE 04:50:06 10° NE visible
